Regional Weather Roundup
Issued by NWS Charleston, SC

Current Version |  Previous Version |  Text Only |  Print | Product List |  Glossary On
Versions: 1 2 3 4 5 6 7 8 9 10 11 12 13 14 15 16 17 18 19 20 21 22 23 24 25 26 27 28 29 30 31 32 33 34 35 36 37 38 39 40 41 42 43 44 45 46 47 48 49 50
440
ASUS42 KCHS 261610
RWRCHS

Regional Weather Roundup
National Weather Service Charleston SC
1200 PM EDT SUN MAY 26 2024

NOTE: "fair" indicates few or no clouds below 12,000 feet with no
significant weather and/or obstructions to visibility.

Not all stations are quality controlled. Use data with caution,
especially dewpoint observations.

SCZ027-030-031-034>040-042>050-261700-
...Southeast South Carolina...

CITY           SKY/WX    TMP DP  RH WIND       PRES   REMARKS
N Charleston   PTSUNNY   86  68  54 VRB5      29.93S
Waterfront Prk NOT AVBL
Mount Pleasant NOT AVBL
Johns Island   MOSUNNY   88  70  55 CALM      29.94R HX  92
Pinopolis        N/A     79  73  83 VRB3        N/A
Moncks Corner  SUNNY     86  68  54 CALM      29.93S
Summerville    MOSUNNY   84  72  65 VRB5      29.92S
Beaufort MCAS  MOSUNNY   86  73  65 CALM      29.94S HX  93
Beaufort Arpt  MOSUNNY   82  57  42 CALM      29.94S
Hilton Head Is MOSUNNY   82  72  69 VRB5      29.95F
Walterboro     MOSUNNY   84  68  58 SW5       29.94F
Allendale      MOSUNNY   84  70  61 VRB3      29.92F

...Southern Midlands and Pee Dee...

CITY           SKY/WX    TMP DP  RH WIND       PRES   REMARKS
Georgetown     MOSUNNY   82  68  61 CALM      29.94R
Kingstree      SUNNY     82  70  65 S3        29.93S
Orangeburg     SUNNY     88  68  51 CALM      29.93S HX  91
Barnwell       SUNNY     86  68  54 CALM      29.93S
Aiken          NOT AVBL
Manning        SUNNY     82  66  57 S5        29.93S
Columbia       MOSUNNY   86  71  60 SE6       29.92S HX  91
Sumter         NOT AVBL
Florence       SUNNY     86  68  54 SW5       29.92S
Myrtle Beach   SUNNY     80  73  79 SE7       29.94R
N Myrtle Beach SUNNY     79  70  74 SW5       29.92S

$$

GAZ063-065-086>088-099>101-113>116-118-119-134>141-150-261700-
...Southeast Georgia...

CITY           SKY/WX    TMP DP  RH WIND       PRES   REMARKS
Savannah Arpt  PTSUNNY   86  71  60 VRB3      29.94S HX  91
Hunter AAF     NOT AVBL
Fort Stewart   NOT AVBL
Statesboro     MOSUNNY   84  67  57 CALM      29.95R
Sylvania       MOSUNNY   86  68  53 CALM      29.95R
Claxton        MOSUNNY   85  70  61 CALM      29.95R
Millen         MOSUNNY   86  70  58 SE8       29.94S HX  90
Metter         MOSUNNY   85  71  62 S3        29.95R HX  91
Reidsville     MOSUNNY   86  72  61 W6        29.95R HX  92

...CSRA, Central and far Southeast Georgia...

CITY           SKY/WX    TMP DP  RH WIND       PRES   REMARKS
Thomson        SUNNY     85  70  60 CALM      29.94S
Augusta-Bush   SUNNY     86  68  54 SE3       29.91S
Augusta-Daniel SUNNY     85  69  58 CALM      29.93F
Swainsboro     NOT AVBL
Vidalia        SUNNY     86  72  62 SW6       29.95S HX  92
Eastman        SUNNY     84  72  65 SW5       29.97S
Hazlehurst     MOSUNNY   86  72  61 SW5       29.94S HX  92
Alma           SUNNY     87  63  44 VRB3      29.95S
Waycross       MOSUNNY   88  74  63 W5        29.96R HX  97
Jesup          MOSUNNY   88  72  58 CALM      29.97S HX  94
Baxley         MOSUNNY   84  70  61 W5        29.95S
Brunswick      PTSUNNY   86  71  61 CALM      29.95R HX  92
Saint Simons   MOSUNNY   86  77  74 SE10      29.94S HX  97

$$

SCZ027-028-034-036>038-045-046-048>050-GAZ119-141-261700-
...Lake and Supplemental Coastal Observations...

STATION/POSITION TIME  TEMP    WIND        PRES    WAVE   SWELL
                       AIR SEA DIR/SP/G            HT/PER HT/PER/DIR
                 (UTC) (F)     (DEG/KT/KT) (MB)    (FT/S) (FT/S/D)
Winyah Bay       1445   80     280/  2     1014.0
Lake Murray      1520   83      CALM  /  2   N/A
Chrlstn Harbor   1524   80 78  180/  4/  5 1014.2
ACE Basin NERRS  1445   84     250/  1     1013.0
Fort Pulaski     1524   87 78  300/  2/  3 1014.3
Sapelo Island    1500   84     290/  3     1014.0

$$

ANZ835-935-AMZ111-154-330-350-352-354-370-450-454-472-261700-
...C-MAN and Buoy Observations...

STATION/POSITION TIME  TEMP    WIND        PRES    WAVE   SWELL
                       AIR SEA DIR/SP/G            HT/PER HT/PER/DIR
                 (UTC) (F)     (DEG/KT/KT) (MB)    (FT/S) (FT/S/D)
Buoy 41004       1550   76 79  250/  8/ 10 1013.7S   2/ 8
Buoy 41008       1550   80 80  220/  2/  4 1014.3F   1/ 8   2/110/ 8
Folly Beach CMAN NOT AVBL
Chas Pilot Buoy  1508   75 77  250/  6/  8 1013.7R
Chas Pilot Wave  1508                        N/A     2/ 9
Capers Nearshore 1508   76 77  220/  8/ 12 1013.4R
Capers NS Wave   1522                        N/A     2/ 9
Fripp Nearshore  1508   77 77  230/  4/  8 1013.3F
Fripp NS Wave    1505      77                N/A     1/ 9


STATION/POSITION TIME  TEMP    WIND        PRES    WAVE   SWELL
                       AIR SEA DIR/SP/G            HT/PER HT/PER/DIR
                 (UTC) (F)     (DEG/KT/KT) (MB)    (FT/S) (FT/S/D)
5E St. Marys GA  1500   80 81                N/A     1/ 8
Frying Pan Buoy  1550   75 75  260/  4/  6 1013.5R   2/ 8   2/140/ 8
Buoy 41025       1550      71  270/  2/  4 1013.3R
Cape Lookout NC  1500   76     130/  5/  5 1013.3R
Buoy 41002       1550   75 77  230/ 16/ 17 1013.8R   3/ 4   2/120/ 8
Buoy 41010       1550   80 80  180/ 10/ 10 1015.1R   2/ 8   2/120/ 8
St Augustine FL  1600   81 79   90/  7/  8 1014.2R


$$